• In Netherlands
  • List of Countries
  • For 7 days
  • Water Temperature
  • Satellite Maps
  • Weather Map
  • Weather Widgets
  • user-avatar
    Login

    Hourly Weather Lozenec

    Today, 21 January, Saturday

    Time Temperature Precipitation Wind Pressure Humidity
    00:00 -8°C° 0 mm 2 mps 772 mmHg 89%
    01:00 -8°C° 0 mm 2 mps 772 mmHg 89%
    02:00 -7°C° 0 mm 2 mps 772 mmHg 89%
    03:00 -7°C° 0 mm 2 mps 771 mmHg 88%
    04:00 -7°C° 0 mm 2 mps 771 mmHg 87%
    05:00 -7°C° 0 mm 2 mps 771 mmHg 86%
    06:00 -7°C° 0 mm 2 mps 771 mmHg 84%
    07:00 -7°C° 0 mm 2 mps 771 mmHg 81%
    08:00 -6°C° 0 mm 2 mps 771 mmHg 80%
    09:00 -4°C° 0 mm 2 mps 771 mmHg 76%
    10:00 -2°C° 0 mm 2 mps 771 mmHg 73%
    11:00 +1°C° 0 mm 2 mps 771 mmHg 69%
    12:00 +1°C° 0 mm 2 mps 771 mmHg 70%
    13:00 +2°C° 0 mm 2 mps 771 mmHg 70%
    14:00 +2°C° 0 mm 2 mps 770 mmHg 71%
    15:00 -1°C° 0 mm 2 mps 770 mmHg 75%
    16:00 -2°C° 0 mm 2 mps 770 mmHg 79%
    17:00 -4°C° 0 mm 2 mps 770 mmHg 83%
    18:00 -4°C° 0 mm 2 mps 770 mmHg 82%
    19:00 -5°C° 0 mm 2 mps 770 mmHg 81%
    20:00 -5°C° 0 mm 2 mps 770 mmHg 80%
    21:00 -5°C° 0 mm 2 mps 771 mmHg 78%
    22:00 -4°C° 0 mm 2 mps 771 mmHg 77%
    23:00 -4°C° 0 mm 2 mps 771 mmHg 76%

    Tomorrow, 22 January, Sunday

    Time Temperature Precipitation Wind Pressure Humidity
    00:00 -4°C° 0 mm 2 mps 771 mmHg 76%
    01:00 -4°C° 0 mm 2 mps 771 mmHg 76%
    02:00 -5°C° 0 mm 3 mps 772 mmHg 76%
    03:00 -5°C° 0 mm 3 mps 772 mmHg 76%
    04:00 -4°C° 0 mm 3 mps 772 mmHg 75%
    05:00 -4°C° 0 mm 3 mps 772 mmHg 75%
    06:00 -4°C° 0 mm 3 mps 772 mmHg 77%
    07:00 -4°C° 0 mm 3 mps 772 mmHg 79%
    08:00 -4°C° 0 mm 3 mps 772 mmHg 81%
    09:00 -1°C° 0 mm 3 mps 772 mmHg 83%
    10:00 0°C° 0 mm 3 mps 773 mmHg 85%
    11:00 +1°C° 0 mm 3 mps 773 mmHg 87%
    12:00 0°C° 0 mm 4 mps 773 mmHg 89%
    13:00 +1°C° 0 mm 4 mps 772 mmHg 90%
    14:00 +1°C° 0 mm 4 mps 772 mmHg 91%
    15:00 0°C° 0 mm 4 mps 772 mmHg 92%
    16:00 0°C° 0 mm 4 mps 772 mmHg 93%
    17:00 -1°C° 0 mm 4 mps 772 mmHg 94%
    18:00 -1°C° 0 mm 4 mps 772 mmHg 95%
    19:00 -1°C° 0 mm 4 mps 772 mmHg 95%
    20:00 -1°C° 0 mm 4 mps 772 mmHg 95%
    21:00 -1°C° 0 mm 4 mps 772 mmHg 95%
    22:00 -1°C° 0 mm 4 mps 772 mmHg 95%
    23:00 0°C° 0 mm 4 mps 772 mmHg 95%

    Day after tomorrow, 23 January, Monday

    Time Temperature Precipitation Wind Pressure Humidity
    00:00 0°C° 0 mm 4 mps 772 mmHg 95%
    01:00 0°C° 0 mm 4 mps 772 mmHg 95%
    02:00 0°C° 0 mm 4 mps 772 mmHg 94%
    03:00 -1°C° 0 mm 4 mps 771 mmHg 95%
    04:00 -1°C° 0 mm 4 mps 771 mmHg 95%
    05:00 -1°C° 0 mm 4 mps 771 mmHg 95%
    06:00 -1°C° 0 mm 4 mps 771 mmHg 95%
    07:00 -1°C° 0 mm 4 mps 771 mmHg 95%
    08:00 -1°C° 0 mm 4 mps 770 mmHg 95%
    09:00 +1°C° 0 mm 3 mps 770 mmHg 94%
    10:00 +1°C° 0 mm 3 mps 770 mmHg 93%
    11:00 +2°C° 0 mm 3 mps 770 mmHg 92%
    12:00 +2°C° 0 mm 3 mps 769 mmHg 92%
    13:00 +3°C° 0 mm 3 mps 769 mmHg 92%
    14:00 +4°C° 0 mm 2 mps 768 mmHg 92%
    15:00 +4°C° 0 mm 2 mps 768 mmHg 94%
    16:00 +3°C° 0 mm 2 mps 768 mmHg 95%
    17:00 +4°C° 0 mm 1 mps 767 mmHg 96%
    18:00 +3°C° 0 mm 1 mps 767 mmHg 96%
    19:00 +2°C° 0 mm 2 mps 767 mmHg 96%
    20:00 +2°C° 0 mm 2 mps 766 mmHg 96%
    21:00 +3°C° 0 mm 1 mps 766 mmHg 96%
    22:00 +3°C° 0 mm 1 mps 766 mmHg 96%
    23:00 +2°C° 0 mm 1 mps 765 mmHg 96%

    24 January, Tuesday

    Time Temperature Precipitation Wind Pressure Humidity
    00:00 +2°C° 0 mm 1 mps 765 mmHg 96%
    01:00 +2°C° 0 mm 1 mps 765 mmHg 96%
    02:00 +2°C° 0 mm 1 mps 764 mmHg 96%
    03:00 +2°C° 0 mm 1 mps 764 mmHg 96%
    04:00 +2°C° 0 mm 1 mps 763 mmHg 96%
    05:00 +2°C° 0 mm 1 mps 763 mmHg 95%
    06:00 +3°C° 0.1 mm 1 mps 763 mmHg 95%
    07:00 +3°C° 0.1 mm 1 mps 763 mmHg 95%
    08:00 +3°C° 0.1 mm 1 mps 762 mmHg 94%
    09:00 +4°C° 0.2 mm 1 mps 762 mmHg 94%
    10:00 +4°C° 0.2 mm 0 mps 762 mmHg 93%
    11:00 +5°C° 0.2 mm 0 mps 762 mmHg 93%
    12:00 +6°C° 0.5 mm 1 mps 762 mmHg 93%
    13:00 +6°C° 0.5 mm 1 mps 761 mmHg 93%
    14:00 +6°C° 0.5 mm 1 mps 761 mmHg 93%
    15:00 +5°C° 0.2 mm 1 mps 761 mmHg 94%
    16:00 +4°C° 0.2 mm 2 mps 760 mmHg 95%
    17:00 +3°C° 0.2 mm 2 mps 760 mmHg 96%
    18:00 +3°C° 0.4 mm 2 mps 760 mmHg 97%
    19:00 +3°C° 0.4 mm 2 mps 760 mmHg 97%
    20:00 +3°C° 0.4 mm 2 mps 760 mmHg 97%
    21:00 +2°C° 0.8 mm 3 mps 760 mmHg 97%
    22:00 +2°C° 0.8 mm 3 mps 760 mmHg 97%
    23:00 +1°C° 0.8 mm 4 mps 760 mmHg 97%

    25 January, Wednesday

    Time Temperature Precipitation Wind Pressure Humidity
    00:00 +1°C° 0.2 mm 4 mps 760 mmHg 97%
    01:00 +1°C° 0.2 mm 5 mps 760 mmHg 96%
    02:00 +1°C° 0.2 mm 6 mps 760 mmHg 96%
    03:00 -1°C° 0.2 mm 6 mps 760 mmHg 95%
    04:00 -1°C° 0.2 mm 6 mps 760 mmHg 95%
    05:00 -2°C° 0.2 mm 6 mps 760 mmHg 94%
    06:00 -2°C° 0.2 mm 7 mps 760 mmHg 94%
    07:00 -2°C° 0.2 mm 7 mps 761 mmHg 93%
    08:00 -2°C° 0.2 mm 7 mps 761 mmHg 93%
    09:00 -2°C° 0.2 mm 7 mps 762 mmHg 92%
    10:00 -2°C° 0.2 mm 8 mps 762 mmHg 92%
    11:00 -2°C° 0.2 mm 8 mps 763 mmHg 91%
    12:00 -2°C° 0.1 mm 8 mps 763 mmHg 90%
    13:00 -2°C° 0.1 mm 8 mps 763 mmHg 88%
    14:00 -2°C° 0.1 mm 8 mps 763 mmHg 87%
    15:00 -3°C° 0 mm 7 mps 763 mmHg 87%
    16:00 -3°C° 0 mm 7 mps 764 mmHg 88%
    17:00 -3°C° 0 mm 7 mps 764 mmHg 88%
    18:00 -4°C° 0 mm 7 mps 764 mmHg 88%
    19:00 -4°C° 0 mm 7 mps 765 mmHg 88%
    20:00 -4°C° 0 mm 7 mps 765 mmHg 88%
    21:00 -4°C° 0 mm 6 mps 766 mmHg 88%
    22:00 -5°C° 0 mm 6 mps 766 mmHg 88%
    23:00 -5°C° 0 mm 6 mps 766 mmHg 88%

    26 January, Thursday

    Time Temperature Precipitation Wind Pressure Humidity
    00:00 -5°C° 0 mm 6 mps 767 mmHg 88%
    01:00 -6°C° 0 mm 7 mps 767 mmHg 88%
    02:00 -6°C° 0 mm 7 mps 767 mmHg 88%
    03:00 -6°C° 0 mm 7 mps 767 mmHg 87%
    04:00 -6°C° 0 mm 7 mps 767 mmHg 87%
    05:00 -7°C° 0 mm 7 mps 767 mmHg 86%
    06:00 -7°C° 0 mm 7 mps 768 mmHg 86%
    07:00 -7°C° 0 mm 7 mps 768 mmHg 86%
    08:00 -7°C° 0 mm 7 mps 768 mmHg 85%
    09:00 -7°C° 0 mm 7 mps 769 mmHg 83%
    10:00 -6°C° 0 mm 7 mps 769 mmHg 81%
    11:00 -5°C° 0 mm 8 mps 769 mmHg 79%
    12:00 -5°C° 0 mm 8 mps 769 mmHg 78%
    13:00 -5°C° 0 mm 8 mps 769 mmHg 78%
    14:00 -5°C° 0 mm 8 mps 769 mmHg 77%
    15:00 -6°C° 0 mm 8 mps 769 mmHg 79%
    16:00 -6°C° 0 mm 8 mps 769 mmHg 80%
    17:00 -6°C° 0 mm 8 mps 770 mmHg 81%
    18:00 -7°C° 0 mm 8 mps 770 mmHg 82%
    19:00 -7°C° 0 mm 8 mps 771 mmHg 83%
    20:00 -8°C° 0 mm 8 mps 771 mmHg 84%
    21:00 -8°C° 0 mm 8 mps 771 mmHg 84%
    22:00 -8°C° 0 mm 8 mps 771 mmHg 85%
    23:00 -10°C° 0 mm 8 mps 772 mmHg 85%
    Show more